DELTA 1 DEB, 42080

Orbit data source: Space-Track

DELTA 1 DEB, 42080 is space debris in SSO originally from a launch on Sun, 15 Dec 1968 UTC launched from the Air Force Western Test Range (AFWTR). Debris objects in space refer to the collection of defunct objects orbiting the Earth. Examples of debris include non-operational satellites, rocket bodies, and fragments generated from explosions, collisions, or faulty payload assembly.

Loading next visibility...
Identifier
42080, 1968-114G
Orbit
SSO
Country
Flag of USUS
Related business
Manufacturer
Aerojet
Mission
Spacecraft
Bus & Motor
Unknown
Mass
Unknown
Launch date (UTC)
1968-12-15 (57 years ago)
Launch vehicle
Unknown
Launch site
Air Force Western Test Range (AFWTR)
Object type
Payload
Rocket body
Debris
Shape & HBR
Unknown shape, 0.1 m
Radar Cross Section
Small (<0.1 m²)

Expand to show TLE details & history
Last TLE update: 20 hours ago

TLE from 20 hours ago
0 DELTA 1 DEB
1 42080U 68114G   26126.56420418 -.00000024  00000-0  14879-3 0  9990
2 42080 101.8267  60.1315 0067232 290.1781 258.2985 12.39298006563457
Epoch: 2026-05-06T13:32Z
TLE epoch observation values (Epoch: 2026-05-06T13:32:27.241Z)
Latitude
-7.70382°
Longitude
170.97986°
Altitude
1,524.563 km
Speed
7.098 km/s
True Right ascension
15h 54m 03s
True Declination
-7° 39' 46"
Sunlit
Object was in full shadow at epoch
Visualization orbit readout
Latitude
Unknown
Longitude
Unknown
Altitude
Unknown
Speed
Unknown
Apparent Right ascension
Unknown
Apparent Declination
Unknown
Sunlit
N/A
Visualization observer readout
Local Sidereal Time
17:04:04
Azimuth
Unknown
Elevation
Unknown
Doppler factor
Unknown
Orbital elements
Apogee altitude
1,560.16 km
Perigee altitude
1,454.131 km
Semi-major axis
7,885.283 km
Eccentricity
0.00672
Inclination
101.8267°
RAAN
60.1315°
Arg. of periapsis
290.1781°
True anomaly
257.54539°
Mean anomaly
258.2985°
Eccentric anomaly
257.92182°
Mean motion
3.09968 °/min
Orbital period
116.14 mins
BSTAR
0.00014879
Loading maneuver chart data...
Computing Atmospheric mass density...
Loading historical data...
Loading historical data...
Loading historical data...
Loading historical data...
Loading historical data...
Loading historical data...
Loading historical data...

Documentation

Showing up to 5 results
|